CST,Max TemperatureF,Mean TemperatureF,Min TemperatureF,Max Dew PointF,MeanDew PointF,Min DewpointF,Max Humidity, Mean Humidity, Min Humidity, Max Sea Level PressureIn, Mean Sea Level PressureIn, Min Sea Level PressureIn, Max VisibilityMiles, Mean VisibilityMiles, Min VisibilityMiles, Max Wind SpeedMPH, Mean Wind SpeedMPH, Max Gust SpeedMPH,PrecipitationIn, CloudCover, Events, WindDirDegrees
2014-2-1,22,12,1,14,7,0,96,85,60,30.40,30.04,29.85,10,6,0,18,4,,0.00,3,Fog,300
2014-2-2,25,9,-7,17,5,-11,92,82,68,30.44,30.35,30.27,10,10,7,15,7,,0.00,0,,226
2014-2-3,23,12,1,18,10,-1,91,82,71,30.25,30.14,29.98,10,9,0,12,4,,0.00,7,Fog,68
2014-2-4,22,13,3,17,8,-3,85,81,76,30.59,30.24,30.07,10,4,0,26,16,37,T,8,Fog-Snow,27
2014-2-5,7,-3,-13,-4,-8,-17,87,73,60,30.81,30.72,30.46,10,10,5,15,12,,T,2,Snow,320
2014-2-6,6,-4,-15,-1,-8,-18,83,77,69,30.76,30.59,30.32,10,10,7,16,5,,0.00,7,,184
2014-2-7,12,7,2,7,2,-2,88,81,73,30.38,30.19,29.98,10,6,2,12,8,,T,6,Snow,172
2014-2-8,27,16,4,17,10,1,88,75,55,30.27,30.11,30.04,9,7,5,14,7,,0.00,3,Snow,44
2014-2-9,21,16,11,16,9,5,88,82,74,30.49,30.30,30.15,10,5,0,15,10,,0.03,8,Fog-Snow,47
2014-2-10,15,11,7,9,7,3,87,80,76,30.48,30.39,30.24,10,8,2,12,7,,T,7,Snow,155
2014-2-11,35,23,10,28,15,8,100,83,71,30.40,30.19,30.04,10,7,0,13,8,,0.00,4,Fog,207
2014-2-12,33,27,20,27,24,17,89,78,69,30.24,30.07,29.86,10,10,6,18,11,,0.00,1,,259
2014-2-13,47,36,24,34,29,22,88,74,61,29.94,29.83,29.70,10,10,10,20,9,,0.00,0,,240
2014-2-14,49,42,35,33,28,23,83,62,37,30.04,29.97,29.80,10,10,10,24,15,29,0.00,3,,300
2014-2-15,53,43,32,35,28,23,75,59,33,30.12,29.95,29.75,10,10,10,23,11,30,0.00,5,,298
2014-2-16,59,43,26,35,29,24,89,66,40,30.12,29.89,29.69,10,10,10,26,9,36,0.00,1,,177
2014-2-17,62,48,34,20,16,13,33,24,15,30.10,29.96,29.78,10,10,10,30,19,38,T,1,,267
2014-2-18,65,47,29,23,20,14,69,43,14,30.07,29.86,29.71,10,10,10,37,14,54,0.00,0,,282
2014-2-19,59,42,25,26,21,19,81,51,22,30.01,29.76,29.52,10,10,10,23,9,33,0.00,1,,182
2014-2-20,41,33,24,31,25,17,96,71,43,29.97,29.78,29.53,10,7,0,36,22,54,0.03,4,Fog-Snow,321
2014-2-21,52,37,22,22,18,15,78,52,24,29.94,29.90,29.85,10,10,10,22,10,32,0.00,1,,275
2014-2-22,47,36,24,27,23,20,92,69,37,30.17,30.01,29.92,10,8,0,22,10,28,0.01,4,Fog-Snow,38
2014-2-23,26,23,19,24,19,15,96,88,78,30.40,30.26,30.12,10,7,1,17,11,,0.09,8,Snow,79
2014-2-24,40,27,13,24,17,6,88,73,53,30.50,30.24,30.06,10,10,10,28,11,36,0.00,5,,114
2014-2-25,14,9,3,10,6,-1,95,79,67,30.63,30.45,30.33,10,5,1,15,9,,0.01,6,Snow,349
2014-2-26,30,12,-6,15,4,-8,96,77,51,30.60,30.29,30.14,10,9,2,20,8,24,0.00,0,,264
2014-2-27,28,16,4,17,12,0,85,79,71,30.12,29.96,29.73,10,10,9,21,8,26,0.00,1,,81
2014-2-28,35,27,18,27,20,12,85,77,70,30.18,29.89,29.70,10,10,9,23,11,25,0.00,6,,24